Date String (YYYY-MM-DD hh:mm:ss) UTC,Instrument flags,absolute air pressure of the measurement (hPa),sample flow rate (lpm),inlet stack bypass flow (lpm),air temperature of the measurement (°C),ambient temperature measured by the external sensor (°C),aerosol sample conditioner tube jacket temperature (°C),OPC LED temperature (°C),internal box temperature (°C),relative humidity of the measurement (%),span deviation,mass concentration of particles derived from Lorenz-Mie calculation of OPC scattering (μg/m³),mass concentration of particles derived from Lorenz-Mie calculation of OPC scattering (μg/m³),mass concentration of particles derived from Lorenz-Mie calculation of OPC scattering (μg/m³)
DateTimeUTC,F1_M11,P_M11,Q1_M11,Q2_M11,T1_M11,T2_M11,T3_M11,T4_M11,T5_M11,U1_M11,ZSPAN_M11,X2_M11,X0_M11,X1_M11
2023-08-28 21:00:00,SystemResetWarning,0837.4,5.03,000.00,030.0,025.3,000.0,037.5,029.9,35.1,0000.0,0003.34,0006.13,0003.15
2023-08-28 21:01:00,SystemResetWarning,0837.6,4.97,000.00,030.2,025.7,000.0,037.5,030.1,34.8,0000.0,0003.36,0006.25,0003.16
2023-08-28 21:02:00,SystemResetWarning,0837.6,5.02,000.00,030.4,026.1,000.0,037.6,030.2,34.2,0000.0,0003.35,0005.62,0003.16
2023-08-28 21:03:00,SystemResetWarning,0837.6,5.01,000.00,030.5,026.4,000.0,037.7,030.3,34.3,0000.0,0003.37,0004.87,0003.18
2023-08-28 21:04:00,SystemResetWarning,0837.6,4.98,000.00,030.6,026.7,000.0,037.8,030.3,35.1,0000.0,0003.38,0004.88,0003.19
2023-08-28 21:05:00,SystemResetWarning,0837.6,5.01,000.00,030.7,026.9,000.0,037.9,030.5,34.7,0000.0,0003.40,0004.95,0003.21
2023-08-28 21:06:00,SystemResetWarning,0837.6,4.99,000.00,030.8,027.1,000.0,038.0,030.6,35.3,0000.0,0003.40,0004.84,0003.22
2023-08-28 21:07:00,SystemResetWarning,0837.7,5.01,000.00,031.1,026.3,000.0,038.0,030.6,34.7,0000.0,0003.41,0004.87,0003.21
2023-08-28 21:08:00,SystemResetWarning,0837.6,4.99,000.00,031.3,024.8,000.0,037.9,030.4,34.6,0000.0,0003.42,0004.83,0003.22
2023-08-28 21:09:00,SystemResetWarning,0837.6,5.02,000.00,031.3,024.1,000.0,037.9,030.2,34.1,0000.0,0003.43,0004.76,0003.23
2023-08-28 21:10:00,SystemResetWarning,0837.6,4.99,000.00,031.2,024.2,000.0,038.0,030.0,34.1,0000.0,0003.45,0004.81,0003.24
2023-08-28 21:11:00,SystemResetWarning,0837.6,4.98,000.00,031.1,024.6,000.0,038.2,030.0,35.0,0000.0,0003.47,0005.00,0003.24
2023-08-28 21:12:00,SystemResetWarning,0837.6,5.01,000.00,031.0,025.1,000.0,038.3,030.1,35.6,0000.0,0003.48,0005.20,0003.24
2023-08-28 21:13:00,SystemResetWarning,0837.6,5.02,000.00,031.2,025.5,000.0,038.4,030.3,35.5,0000.0,0003.49,0006.44,0003.25
2023-08-28 21:14:00,SystemResetWarning,0837.6,5.00,000.00,031.5,025.9,000.0,038.4,030.6,35.1,0000.0,0003.49,0006.41,0003.26
2023-08-28 21:15:00,SystemResetWarning,0837.7,4.98,000.00,031.8,026.3,000.0,038.5,030.7,34.5,0000.0,0003.51,0006.44,0003.26
2023-08-28 21:16:00,SystemResetWarning,0837.6,5.00,000.00,031.9,026.5,000.0,038.6,030.8,34.1,0000.0,0003.51,0006.48,0003.26
2023-08-28 21:17:00,SystemResetWarning,0837.6,5.01,000.00,032.0,026.8,000.0,038.8,030.8,33.9,0000.0,0003.51,0006.77,0003.27
2023-08-28 21:18:00,SystemResetWarning,0837.6,5.00,000.00,032.0,027.0,000.0,038.9,030.8,33.8,0000.0,0003.52,0007.22,0003.29
2023-08-28 21:19:00,SystemResetWarning,0837.6,4.99,000.00,032.1,026.7,000.0,039.0,030.8,33.7,0000.0,0003.54,0007.27,0003.31
2023-08-28 21:20:00,SystemResetWarning,0837.5,4.99,000.00,032.1,025.1,000.0,038.9,030.6,33.7,0000.0,0003.54,0007.24,0003.31
2023-08-28 21:21:00,SystemResetWarning,0837.5,5.02,000.00,032.0,024.1,000.0,038.8,030.3,33.5,0000.0,0003.55,0007.20,0003.33
2023-08-28 21:22:00,SystemResetWarning,0837.5,5.00,000.00,031.9,024.0,000.0,038.9,030.1,33.8,0000.0,0003.56,0007.15,0003.34
2023-08-28 21:23:00,SystemResetWarning,0837.4,5.00,000.00,031.6,024.4,000.0,038.9,030.0,34.2,0000.0,0003.58,0007.20,0003.35
2023-08-28 21:24:00,SystemResetWarning,0837.4,5.00,000.00,031.5,024.9,000.0,039.0,030.2,34.1,0000.0,0003.61,0006.08,0003.37
2023-08-28 21:25:00,SystemResetWarning,0837.4,5.00,000.00,031.4,025.4,000.0,039.0,030.3,34.5,0000.0,0003.62,0005.94,0003.37
2023-08-28 21:26:00,SystemResetWarning,0837.4,5.00,000.00,031.3,025.8,000.0,039.1,030.4,34.3,0000.0,0003.63,0005.95,0003.38
2023-08-28 21:27:00,SystemResetWarning,0837.4,5.00,000.00,031.2,026.1,000.0,039.1,030.5,34.6,0000.0,0003.67,0006.02,0003.41
2023-08-28 21:28:00,SystemResetWarning,0837.3,5.01,000.00,031.2,026.5,000.0,039.1,030.6,34.8,0000.0,0003.72,0006.03,0003.42
2023-08-28 21:29:00,SystemResetWarning,0837.2,4.97,000.00,031.1,026.7,000.0,039.1,030.6,35.0,0000.0,0003.72,0006.30,0003.43
2023-08-28 21:30:00,SystemResetWarning,0837.2,5.03,000.00,031.2,027.0,000.0,039.1,030.7,35.6,0000.0,0003.71,0006.91,0003.43
2023-08-28 21:31:00,SystemResetWarning,0837.2,4.99,000.00,031.4,026.9,000.0,039.1,030.9,35.7,0000.0,0003.72,0006.90,0003.44
2023-08-28 21:32:00,SystemResetWarning,0837.2,4.99,000.00,031.7,025.5,000.0,038.9,030.9,34.7,0000.0,0003.72,0006.93,0003.45
2023-08-28 21:33:00,SystemResetWarning,0837.2,5.00,000.00,031.9,024.2,000.0,038.8,030.7,34.0,0000.0,0003.72,0006.87,0003.45
2023-08-28 21:34:00,SystemResetWarning,0837.2,5.00,000.00,032.0,024.0,000.0,038.8,030.4,34.2,0000.0,0003.74,0006.98,0003.46
2023-08-28 21:35:00,SystemResetWarning,0837.2,5.00,000.00,031.8,024.3,000.0,038.8,030.3,34.3,0000.0,0003.74,0007.79,0003.47
2023-08-28 21:36:00,SystemResetWarning,0837.2,4.99,000.00,031.7,024.7,000.0,038.9,030.3,35.5,0000.0,0003.76,0007.83,0003.48
2023-08-28 21:37:00,SystemResetWarning,0837.2,5.01,000.00,031.8,025.2,000.0,039.0,030.5,36.2,0000.0,0003.78,0007.86,0003.49
2023-08-28 21:38:00,SystemResetWarning,0837.2,5.00,000.00,032.0,025.7,000.0,039.1,030.7,36.0,0000.0,0003.79,0007.93,0003.47
2023-08-28 21:39:00,SystemResetWarning,0837.2,5.00,000.00,032.3,026.0,000.0,039.2,030.9,35.4,0000.0,0003.79,0007.96,0003.46
2023-08-28 21:40:00,SystemResetWarning,0837.3,5.00,000.00,032.6,026.4,000.0,039.2,031.0,34.0,0000.0,0003.79,0007.42,0003.45
2023-08-28 21:41:00,SystemResetWarning,0837.3,4.98,000.00,032.7,026.6,000.0,039.4,031.1,33.7,0000.0,0003.79,0007.06,0003.44
2023-08-28 21:42:00,SystemResetWarning,0837.4,5.01,000.00,032.8,026.9,000.0,039.5,031.1,33.2,0000.0,0003.79,0007.12,0003.42
2023-08-28 21:43:00,SystemResetWarning,0837.4,5.01,000.00,032.8,027.1,000.0,039.6,031.1,32.5,0000.0,0003.79,0007.14,0003.41
2023-08-28 21:44:00,SystemResetWarning,0837.4,4.99,000.00,032.8,026.8,000.0,039.7,031.1,33.0,0000.0,0003.79,0007.29,0003.39
2023-08-28 21:45:00,SystemResetWarning,0837.4,4.99,000.00,032.9,025.3,000.0,039.6,030.9,33.4,0000.0,0003.76,0007.10,0003.37
2023-08-28 21:46:00,SystemResetWarning,0837.5,5.01,000.00,032.8,024.3,000.0,039.5,030.6,33.2,0000.0,0003.74,0006.00,0003.35
2023-08-28 21:47:00,SystemResetWarning,0837.5,5.00,000.00,032.6,024.2,000.0,039.6,030.5,31.7,0000.0,0003.74,0006.52,0003.34
2023-08-28 21:48:00,SystemResetWarning,0837.5,5.01,000.00,032.4,024.6,000.0,039.6,030.4,32.1,0000.0,0003.75,0006.88,0003.32
2023-08-28 21:49:00,SystemResetWarning,0837.6,5.00,000.00,032.2,025.0,000.0,039.7,030.4,32.4,0000.0,0003.71,0006.75,0003.31
2023-08-28 21:50:00,SystemResetWarning,0837.6,5.00,000.00,032.1,025.5,000.0,039.7,030.5,32.9,0000.0,0003.66,0006.66,0003.29
2023-08-28 21:51:00,SystemResetWarning,0837.6,5.00,000.00,032.0,025.9,000.0,039.8,030.6,33.8,0000.0,0003.65,0006.60,0003.29
2023-08-28 21:52:00,SystemResetWarning,0837.6,5.01,000.00,031.9,026.2,000.0,039.8,030.7,33.9,0000.0,0003.65,0006.64,0003.28
2023-08-28 21:53:00,SystemResetWarning,0837.7,5.00,000.00,031.8,026.5,000.0,039.8,030.8,33.4,0000.0,0003.63,0006.55,0003.28
2023-08-28 21:54:00,SystemResetWarning,0837.6,5.00,000.00,031.8,026.8,000.0,039.7,030.8,32.4,0000.0,0003.62,0006.51,0003.27
2023-08-28 21:55:00,SystemResetWarning,0837.7,5.00,000.00,031.7,027.0,000.0,039.7,030.9,30.9,0000.0,0003.60,0006.34,0003.27
2023-08-28 21:56:00,SystemResetWarning,0837.7,5.00,000.00,031.7,027.2,000.0,039.7,031.0,30.4,0000.0,0003.61,0006.41,0003.27
2023-08-28 21:57:00,SystemResetWarning,0837.7,4.98,000.00,031.6,026.7,000.0,039.6,030.9,30.5,0000.0,0003.64,0006.52,0003.28
2023-08-28 21:58:00,SystemResetWarning,0837.7,5.00,000.00,031.6,025.1,000.0,039.4,030.6,31.7,0000.0,0003.63,0006.12,0003.27
2023-08-28 21:59:00,SystemResetWarning,0837.8,5.01,000.00,031.5,024.3,000.0,039.2,030.4,31.8,0000.0,0003.57,0005.48,0003.26
